Weather History for KCDD - October, 2011

Change the Weather History Date:

Wednesday, October 5, 2011

  Actual Average Record
Temperature  
Mean Temperature 58 °F -  
Max Temperature 75 °F 55 °F 75 °F (2011)
Min Temperature 42 °F 36 °F 26 °F (2003)
Degree Days  
Heating Degree Days 6    
Growing Degree Days 8 (Base 50)    
Moisture  
Dew Point 45 °F    
Average Humidity 64    
Maximum Humidity 93    
Minimum Humidity 34    
Precipitation  
Precipitation 0.00 in - - ()
Sea Level Pressure  
Sea Level Pressure 30.08 in    
Wind  
Wind Speed 1 mph (SE)    
Max Wind Speed 10 mph    
Max Gust Speed 18 mph    
Visibility 10 miles    
Events      
Averages and records for this station are not official NWS values.
T = Trace of Precipitation, MM = Missing Value Source: NWS Daily Summary

Daily Weather History Graph

Daily Weather History Graph

Search for Another Location

Airport or City:

Trip Planner

Search our weather history database for the weather conditions in past years. The results will help you decide how hot, cold, wet, or windy it might be!

Date:

Astronomy

Oct. 05, 2011 Rise Set
Actual Time 7:14 AM CDT 6:41 PM CDT
Civil Twilight 6:43 AM CDT 7:12 PM CDT
Nautical Twilight 6:07 AM CDT 7:48 PM CDT
Astronomical Twilight 5:30 AM CDT 8:25 PM CDT
Moon 3:46 PM CDT (10/5) 12:33 AM CDT (10/5)
Length of Visible Light 12h 28m
Length of Day
11h 26m
Waxing Gibbous, 66% of the Moon is Illuminated
Oct 5
Waxing Gibbous
Oct 11
Full
Oct 19
Last Quarter
Oct 26
New
Nov 2
First Quarter

Hourly Weather History & Observations

Time (CDT) Temp. Dew Point Humidity Pressure Visibility Wind Dir Wind Speed Gust Speed Precip Events Conditions
12:32 AM 46.4 °F 42.8 °F 87% 30.10 in 10.0 mi Calm Calm - N/A   Clear
12:52 AM 46.4 °F 42.8 °F 87% 30.10 in 10.0 mi Calm Calm - N/A   Clear
1:12 AM 46.4 °F 42.8 °F 87% 30.10 in 10.0 mi Calm Calm - N/A   Clear
1:32 AM 46.4 °F 42.8 °F 87% 30.10 in 10.0 mi Calm Calm - N/A   Clear
1:52 AM 46.4 °F 42.8 °F 87% 30.10 in 10.0 mi Calm Calm - N/A   Clear
2:12 AM 44.6 °F 42.8 °F 93% 30.10 in 10.0 mi Calm Calm - N/A   Clear
3:13 AM 44.6 °F 42.8 °F 93% 30.09 in 10.0 mi Calm Calm - N/A   Clear
3:32 AM 44.6 °F 41.0 °F 87% 30.09 in 10.0 mi Calm Calm - N/A   Clear
3:52 AM 44.6 °F 41.0 °F 87% 30.09 in 10.0 mi Calm Calm - N/A   Clear
4:13 AM 42.8 °F 41.0 °F 93% 30.09 in 10.0 mi Calm Calm - N/A   Scattered Clouds
4:32 AM 42.8 °F 41.0 °F 93% 30.09 in 10.0 mi Calm Calm - N/A   Clear
4:53 AM 42.8 °F 41.0 °F 93% 30.09 in 10.0 mi Calm Calm - N/A   Clear
5:12 AM 42.8 °F 41.0 °F 93% 30.08 in 10.0 mi Calm Calm - N/A   Clear
5:32 AM 42.8 °F 41.0 °F 93% 30.08 in 10.0 mi Calm Calm - N/A   Clear
5:53 AM 42.8 °F 41.0 °F 93% 30.08 in 10.0 mi Calm Calm - N/A   Clear
6:12 AM 42.8 °F 39.2 °F 87% 30.08 in 10.0 mi Calm Calm - N/A   Clear
6:33 AM 42.8 °F 39.2 °F 87% 30.08 in 10.0 mi Calm Calm - N/A   Clear
6:52 AM 42.8 °F 41.0 °F 93% 30.08 in 10.0 mi Calm Calm - N/A   Clear
7:12 AM 46.4 °F 42.8 °F 87% 30.08 in 10.0 mi Calm Calm - N/A   Clear
7:32 AM 46.4 °F 42.8 °F 87% 30.09 in 10.0 mi Calm Calm - N/A   Clear
7:52 AM 48.2 °F 44.6 °F 87% 30.09 in 10.0 mi Calm Calm - N/A   Clear
8:13 AM 46.4 °F 44.6 °F 93% 30.10 in 10.0 mi Calm Calm - N/A   Clear
8:33 AM 48.2 °F 44.6 °F 87% 30.10 in 10.0 mi Calm Calm - N/A   Clear
9:13 AM 57.2 °F 46.4 °F 67% 30.10 in 10.0 mi Calm Calm - N/A   Clear
9:33 AM 60.8 °F 46.4 °F 59% 30.11 in 10.0 mi Calm Calm - N/A   Clear
10:13 AM 62.6 °F 46.4 °F 55% 30.10 in 10.0 mi Calm Calm - N/A   Clear
10:33 AM 62.6 °F 46.4 °F 55% 30.11 in 10.0 mi Calm Calm - N/A   Clear
10:52 AM 64.4 °F 46.4 °F 52% 30.11 in 10.0 mi Calm Calm - N/A   Clear
11:12 AM 66.2 °F 46.4 °F 49% 30.11 in 10.0 mi SSE 5.8 mph - N/A   Clear
11:32 AM 66.2 °F 46.4 °F 49% 30.11 in 10.0 mi ESE 3.5 mph - N/A   Clear
12:12 PM 69.8 °F 48.2 °F 46% 30.10 in 10.0 mi SSE 5.8 mph - N/A   Clear
12:32 PM 71.6 °F 48.2 °F 43% 30.09 in 10.0 mi ESE 3.5 mph - N/A   Clear
12:52 PM 71.6 °F 48.2 °F 43% 30.09 in 10.0 mi East 4.6 mph - N/A   Clear
1:12 PM 73.4 °F 46.4 °F 38% 30.08 in 10.0 mi SE 5.8 mph - N/A   Clear
1:32 PM 75.2 °F 46.4 °F 36% 30.07 in 10.0 mi SE 4.6 mph - N/A   Scattered Clouds
1:52 PM 75.2 °F 46.4 °F 36% 30.06 in 10.0 mi SE 3.5 mph - N/A   Clear
2:12 PM 75.2 °F 46.4 °F 36% 30.06 in 10.0 mi SSE 4.6 mph - N/A   Clear
2:33 PM 75.2 °F 44.6 °F 34% 30.05 in 10.0 mi SSE 10.4 mph - N/A   Clear
2:53 PM 75.2 °F 46.4 °F 36% 30.05 in 10.0 mi SSE 9.2 mph 16.1 mph N/A   Clear
3:12 PM 75.2 °F 46.4 °F 36% 30.05 in 10.0 mi SSE 3.5 mph 18.4 mph N/A   Clear
3:32 PM 75.2 °F 46.4 °F 36% 30.05 in 10.0 mi SSE 5.8 mph - N/A   Clear
3:52 PM 75.2 °F 46.4 °F 36% 30.05 in 10.0 mi SSE 3.5 mph - N/A   Clear
4:12 PM 75.2 °F 44.6 °F 34% 30.05 in 10.0 mi SE 9.2 mph - N/A   Clear
4:32 PM 75.2 °F 44.6 °F 34% 30.04 in 10.0 mi SE 9.2 mph 16.1 mph N/A   Clear
4:53 PM 75.2 °F 44.6 °F 34% 30.04 in 10.0 mi SSE 8.1 mph - N/A   Clear
5:32 PM 73.4 °F 44.6 °F 36% 30.04 in 10.0 mi SSE 4.6 mph - N/A   Clear
5:52 PM 71.6 °F 44.6 °F 38% 30.04 in 10.0 mi SSE 3.5 mph - N/A   Clear
6:12 PM 69.8 °F 46.4 °F 43% 30.05 in 10.0 mi Calm Calm - N/A   Clear
6:32 PM 68.0 °F 46.4 °F 46% 30.05 in 10.0 mi Calm Calm - N/A   Clear
6:52 PM 66.2 °F 46.4 °F 49% 30.05 in 10.0 mi Calm Calm - N/A   Clear
7:12 PM 64.4 °F 46.4 °F 52% 30.05 in 10.0 mi Calm Calm - N/A   Clear
7:32 PM 62.6 °F 46.4 °F 55% 30.05 in 10.0 mi SE 3.5 mph - N/A   Clear
7:52 PM 62.6 °F 46.4 °F 55% 30.06 in 10.0 mi Calm Calm - N/A   Clear
8:13 PM 60.8 °F 48.2 °F 63% 30.06 in 10.0 mi Calm Calm - N/A   Clear
8:33 PM 60.8 °F 48.2 °F 63% 30.06 in 10.0 mi Calm Calm - N/A   Clear
8:52 PM 59.0 °F 48.2 °F 67% 30.07 in 10.0 mi Calm Calm - N/A   Clear
9:12 PM 57.2 °F 48.2 °F 72% 30.07 in 10.0 mi Calm Calm - N/A   Clear
9:33 PM 57.2 °F 48.2 °F 72% 30.07 in 10.0 mi Calm Calm - N/A   Clear
9:52 PM 57.2 °F 48.2 °F 72% 30.07 in 10.0 mi Calm Calm - N/A   Clear
10:12 PM 55.4 °F 48.2 °F 77% 30.07 in 10.0 mi Calm Calm - N/A   Clear
10:32 PM 53.6 °F 48.2 °F 82% 30.08 in 10.0 mi Calm Calm - N/A   Clear
10:52 PM 51.8 °F 46.4 °F 82% 30.08 in 10.0 mi Calm Calm - N/A   Clear
11:33 PM 50.0 °F 46.4 °F 87% 30.08 in 10.0 mi Calm Calm - N/A   Clear
11:52 PM 48.2 °F 46.4 °F 93% 30.08 in 10.0 mi Calm Calm - N/A   Clear